Bookmark and Share
Track history (hours):
 

Ty Lotus

Last reported at 2014-Apr-23 14:33 UTC. Time now 2014-Apr-23 15:23 UTC.
Position N 35°26' E 139°43'.

Length 82 m; draft 4 m.

Type: Cargo ship. MMSI: 440324000.

NotesDate/timePositionNaut miles runAvg speedWind from/ knotsBaromVisibWave heightAir tempDewpointWater temp
2014-Apr-23 14:33N 35°26' E 139°43'0 0.0
2014-Apr-23 13:33N 35°26' E 139°43'0 0.1
2014-Apr-23 12:33N 35°26' E 139°43'0 0.1
2014-Apr-23 11:33N 35°26' E 139°43'0 0.0
2014-Apr-23 10:33N 35°26' E 139°43'0 0.1
2014-Apr-23 09:34N 35°26' E 139°43'2 1.8
2014-Apr-23 08:32N 35°27' E 139°41'0 0.0
2014-Apr-23 07:28N 35°27' E 139°41'0 0.0
2014-Apr-23 06:31N 35°27' E 139°41'0 0.0
2014-Apr-23 05:28N 35°27' E 139°41'0 0.0
2014-Apr-23 04:31N 35°27' E 139°41'4 4.3
2014-Apr-23 03:34N 35°28' E 139°46'9 8.5
2014-Apr-23 02:34N 35°33' E 139°55'8 8.0
2014-Apr-23 01:33N 35°40' E 139°59'0 0.1
2014-Apr-23 00:32N 35°40' E 139°58'0 0.0
2014-Apr-22 23:29N 35°40' E 139°58'0 0.0
2014-Apr-22 22:32N 35°40' E 139°58'0 0.0
2014-Apr-22 21:32N 35°40' E 139°58'0 0.0
2014-Apr-22 20:32N 35°40' E 139°58'0 0.0
2014-Apr-22 19:20N 35°40' E 139°58'0 0.0
2014-Apr-22 18:32N 35°40' E 139°58'0 0.0
2014-Apr-22 17:32N 35°40' E 139°58'0 0.0
2014-Apr-22 16:32N 35°40' E 139°58'0 0.0
2014-Apr-22 15:17N 35°40' E 139°58'0 0.0
2014-Apr-22 14:11N 35°40' E 139°58'0 0.0
2014-Apr-22 13:26N 35°40' E 139°58'0 0.0
2014-Apr-22 11:32N 35°40' E 139°58'0 0.0
2014-Apr-22 10:23N 35°40' E 139°58'0 0.0
2014-Apr-22 09:32N 35°40' E 139°58'0 0.0
2014-Apr-22 08:26N 35°40' E 139°58'0 0.0
2014-Apr-22 07:30N 35°40' E 139°58'0 0.0
2014-Apr-22 06:21N 35°40' E 139°58'0 0.0
2014-Apr-22 05:33N 35°40' E 139°58'0 0.0
2014-Apr-22 04:33N 35°40' E 139°58'0 0.0
2014-Apr-22 03:24N 35°40' E 139°58'0 0.0
2014-Apr-22 02:13N 35°40' E 139°58'0 0.0
2014-Apr-22 01:25N 35°40' E 139°58'0 0.0
2014-Apr-22 00:31N 35°40' E 139°58'0 0.0
2014-Apr-21 23:28N 35°40' E 139°58'0 0.0
2014-Apr-21 22:31N 35°40' E 139°58'0 0.0
2014-Apr-21 21:31N 35°40' E 139°58'0 0.0
2014-Apr-21 20:25N 35°40' E 139°58'0 0.0
2014-Apr-21 19:25N 35°40' E 139°58'0 0.0
2014-Apr-21 18:31N 35°40' E 139°58'0 0.0
2014-Apr-21 17:28N 35°40' E 139°58'0 0.0
2014-Apr-21 16:31N 35°40' E 139°58'0 0.0
2014-Apr-21 15:31N 35°40' E 139°58'0 0.0
2014-Apr-21 14:28N 35°40' E 139°58'0 0.0
2014-Apr-21 13:31N 35°40' E 139°58'0 0.0
2014-Apr-21 12:33N 35°40' E 139°58'0 0.0
2014-Apr-21 11:33N 35°40' E 139°58'0 0.0
2014-Apr-21 10:33N 35°40' E 139°58'0 0.0
2014-Apr-21 09:30N 35°40' E 139°58'0 0.0
2014-Apr-21 08:33N 35°40' E 139°58'0 0.0
2014-Apr-21 07:24N 35°40' E 139°58'0 0.0
2014-Apr-21 06:30N 35°40' E 139°58'0 0.0
2014-Apr-21 05:33N 35°40' E 139°58'0 0.0
2014-Apr-21 04:33N 35°40' E 139°58'0 0.0
2014-Apr-21 03:33N 35°40' E 139°58'0 0.0
2014-Apr-21 02:33N 35°40' E 139°58'0 0.0
2014-Apr-21 01:30N 35°40' E 139°58'0 0.0
2014-Apr-21 00:24N 35°40' E 139°58'0 0.0
2014-Apr-20 23:30N 35°40' E 139°58'0 0.0
2014-Apr-20 22:33N 35°40' E 139°58'0 0.0
2014-Apr-20 21:27N 35°40' E 139°58'0 0.0
2014-Apr-20 20:28N 35°40' E 139°58'0 0.0
2014-Apr-20 19:31N 35°40' E 139°58'0 0.0
2014-Apr-20 18:28N 35°40' E 139°58'0 0.0
2014-Apr-20 17:28N 35°40' E 139°58'0 0.0
2014-Apr-20 16:31N 35°40' E 139°58'0 0.0
2014-Apr-20 15:28N 35°40' E 139°58'0 0.0
2014-Apr-20 14:13N 35°40' E 139°58'0 0.0
2014-Apr-20 13:31N 35°40' E 139°58'0 0.0
2014-Apr-20 12:22N 35°40' E 139°58'0 0.0
2014-Apr-20 11:19N 35°40' E 139°58'0 0.0
2014-Apr-20 10:31N 35°40' E 139°58'0 0.0
2014-Apr-20 09:25N 35°40' E 139°58'0 0.0
2014-Apr-20 08:16N 35°40' E 139°58'0 0.0
2014-Apr-20 07:31N 35°40' E 139°58'0 0.0
2014-Apr-20 06:25N 35°40' E 139°58'0 0.0
2014-Apr-20 05:22N 35°40' E 139°58'0 0.0
2014-Apr-20 04:22N 35°40' E 139°58'0 0.0
2014-Apr-20 03:28N 35°40' E 139°58'0 0.0
2014-Apr-20 02:19N 35°40' E 139°58'0 0.0
2014-Apr-20 01:22N 35°40' E 139°58'0 0.0
2014-Apr-20 00:33N 35°40' E 139°58'0 0.0
2014-Apr-19 23:31N 35°40' E 139°58'0 0.0
2014-Apr-19 22:28N 35°40' E 139°58'0 0.0
2014-Apr-19 21:22N 35°40' E 139°58'0 0.0
2014-Apr-19 20:07N 35°40' E 139°58'0 0.0
2014-Apr-19 19:25N 35°40' E 139°58'0 0.0
2014-Apr-19 18:19N 35°40' E 139°58'0 0.0
2014-Apr-19 17:28N 35°40' E 139°58'0 0.0
2014-Apr-19 16:28N 35°40' E 139°58'0 0.0
2014-Apr-19 15:19N 35°40' E 139°58'0 0.0
2014-Apr-19 14:10N 35°40' E 139°58'0 0.0
2014-Apr-19 13:28N 35°40' E 139°58'0 0.0
2014-Apr-19 12:25N 35°40' E 139°58'0 0.0
2014-Apr-19 11:25N 35°40' E 139°58'0 0.0
2014-Apr-19 09:10N 35°40' E 139°58'0 0.0
2014-Apr-19 08:25N 35°40' E 139°58'0 0.0
2014-Apr-19 07:28N 35°40' E 139°58'0 0.0
2014-Apr-19 06:25N 35°40' E 139°58'0 0.0
2014-Apr-19 05:25N 35°40' E 139°58'2 2.3
2014-Apr-19 04:33N 35°39' E 139°59'9 9.2
2014-Apr-19 03:33N 35°30' E 139°53'9 9.5
2014-Apr-19 02:33N 35°23' E 139°46'8 7.9
2014-Apr-19 01:32N 35°15' E 139°47'9 8.7
2014-Apr-19 00:33N 35°07' E 139°45'10 8.9
2014-Apr-18 23:29N 35°02' E 139°35'1010.1
2014-Apr-18 22:31N 35°11' E 139°29'8 8.7
2014-Apr-18 21:33N 35°13' E 139°19'9 8.7
2014-Apr-18 20:28N 35°05' E 139°14'10 9.7
2014-Apr-18 19:28N 34°55' E 139°12'9 9.0
2014-Apr-18 18:30N 34°47' E 139°08'210 8.3
2014-Apr-17 17:14N 33°58' E 135°00'910.8
2014-Apr-17 16:26N 34°07' E 134°59'910.7
2014-Apr-17 15:33N 34°16' E 134°59'10 9.5
2014-Apr-17 14:31N 34°26' E 135°01'9 9.0
2014-Apr-17 13:33N 34°35' E 135°03'8 5.9
2014-Apr-17 12:13N 34°35' E 134°54'242 9.4
2014-Apr-16 10:26N 33°50' E 130°06'  

Dump ship's entire track history

sailing weather and tide predictions

Ty Lotus — DSNU7 — position and weather